Weather Roundup
Issued by NWS Chicago, IL

Home | Current Version | Previous Version | Graphics & Text | Print | Product List | Glossary On
Versions: 1 2 3 4 5 6 7 8 9 10 11 12 13 14 15 16 17 18 19 20 21 22 23 24 25 26 27 28 29 30 31 32 33 34 35 36 37 38 39 40 41 42 43 44 45 46 47 48 49 50
000
NZUS59 KLOT 212110
HRRLOT

CHICAGO AREA WEATHER ROUNDUP
NATIONAL WEATHER SERVICE CHICAGO/ROMEOVILLE IL
400 PM CDT SUN SEP 21 2014

NOTE: "FAIR" INDICATES FEW OR NO CLOUDS BELOW 12,000 FEET WITH NO
SIGNIFICANT WEATHER AND/OR OBSTRUCTIONS TO VISIBILITY.

* THESE STATIONS ARE NOT UNDER NWS QUALITY CONTROL. THEY ALSO MAY NOT
  REPORT WEATHER SUCH AS PRECIPITATION OR FOG.

ILZ005-006-012>014-019>023-212200-
NORTHEAST ILLINOIS

CITY           SKY/WX    TMP DP  RH WIND       PRES   REMARKS
OHARE          PTSUNNY   69  50  50 N16G22    29.96R
MIDWAY         PTSUNNY   67  53  61 N9        29.95S
AURORA         PTSUNNY   67  49  52 N13G21    29.98S
LANSING*       CLOUDY    64  53  67 N9        29.96S
JOLIET*        PTSUNNY   66  48  52 NW8       29.98S
WAUKEGAN       CLOUDY    58  50  75 N10G21    29.97R
DUPAGE AIRPORT PTSUNNY   69  51  52 N14       29.97R
WHEELING       CLOUDY    62  51  67 NE13      29.99R
KANKAKEE*      CLOUDY    67  52  58 NW10G18   29.97S
MORRIS*        PTSUNNY   69  52  54 N7        29.98S
LEWIS AIRPORT* MOSUNNY   65  50  58 NW8       29.97S
NORTHERLY IS     N/A     62  52  69 N14         N/A
$$

WIZ051-052-058>065-066-070>072-212200-
SOUTHEAST WISCONSIN

CITY           SKY/WX    TMP DP  RH WIND       PRES   REMARKS
MILWAUKEE      PTSUNNY   61  45  55 N17G24    29.98R
KENOSHA*       PTSUNNY   61  51  70 N10       29.98R
RACINE*        PTSUNNY   59  51  75 N16G23    29.99R
BURLINGTON     PTSUNNY   62  47  58 N16       29.98R
WAUKESHA       PTSUNNY   57  45  62 NW16G24   30.00R
WEST BEND      CLOUDY    55  41  58 N12G24    30.01R
$$

INZ001>003-010>013-019-020-212200-
NORTHWEST INDIANA

CITY           SKY/WX    TMP DP  RH WIND       PRES   REMARKS
GARY*          PTSUNNY   64  52  63 N12G23    29.97R
MICHIGAN CITY* NOT AVBL
RENSSELAER*    NOT AVBL
VALPARAISO     PTSUNNY   61  50  67 N15G23    29.96R
$$

LMZ740>746-212200-
SOUTHERN LAKE MICHIGAN

STATION/POSITION TIME  SKY/WX   TEMP WIND        PRES    VSBY
                                AIR  DIR/SP/G
                 (UTC)          (F)  (DEG/KT/KT) (MB)    (MI)
HARRISON CRIB    2100            60  360/ 16/ 19   N/A
BURNHAM HARBOR   2100            63  360/ 12/ 13   N/A
CALUMET HARBOR   2100            62  340/ 11/ 14 1013.6R
BURNS HARBOR     NOT AVBL
MICHIGAN CITY    2100            60  330/ 26/ 31   N/A
$$

ABBREVIATIONS USED IN REMARKS
   TC - TEMPERATURE IN CELSIUS
  WCI - WIND CHILL INDEX
   HX - HEAT INDEX
  VSB - VISIBILITY
$$


USA.gov is the U.S. government's official web portal to all federal, state and local government web resources and services.